Location: Poughquag
(41.6090°N, 73.6820°W)
Time: 08:37:21
(UTC-05:00)

Altair - Pass Details

Date: 04 December 2023
Orbit: 1501 x 1682 km, 47.2° (Epoch: 02 March)

Event Time Altitude Azimuth Distance (km) Brightness Sun altitude
Rises 14:39:27 0° 297° (WNW) 4,686 10.2 14.4°
Reaches altitude 10° 14:42:34 10° 293° (WNW) 3,685 9.8 14.0°
Maximum altitude 14:51:29 56° 219° (SW) 1,740 8.7 12.9°
Drops below altitude 10° 15:00:20 10° 144° (SE) 3,649 9.6 11.7°
Sets 15:03:25 0° 140° (SE) 4,638 10.1 11.3°
